sat.trackr.live / text

‹ back to catalog

STARLINK-37358

NORAD 68699 · 2026-081A

PAYLOAD ACTIVE UNKNOWN

§ Identity

Operator
Country
US
Launch date
2026-04-14
Launch site
AFETR
Launch vehicle
Mass (kg)
RCS (m²)

Purposes: comms

External: N2YO · Heavens-Above · Gunter

§ Orbital elements

Epoch: 2026-05-25T04:00:03.998880Z

Period
93.60 min
Inclination
53.1594°
Eccentricity
0.0001602
Mean motion
15.38438404 rev/d
Perigee alt
449.6 km
Apogee alt
451.8 km
Semi-major
6,828.9 km
B*
-6.2864e-2
RAAN
39.2663°
Arg perigee
110.9034°
Mean anomaly
341.6848°
Rev number
574

§ Raw data

STARLINK-373581 68699U 26081A   26145.16671295 -.02173831  00000+0 -62864-1 0  99932 68699  53.1594  39.2663 0001602 110.9034 341.6848 15.38438404  5743

JSON: /api/v1/satellites/68699 · /tle

For live sub-satellite position, see the globe view (requires WebGL).

§ Visibility from observer

Set your observer location to see the next 7 days of passes ≥ 10°. The values pass through the URL so the page stays shareable.

No JS? Fill the form by hand. The geolocation button needs JavaScript.